CDT,Max TemperatureF,Mean TemperatureF,Min TemperatureF,Max Dew PointF,MeanDew PointF,Min DewpointF,Max Humidity, Mean Humidity, Min Humidity, Max Sea Level PressureIn, Mean Sea Level PressureIn, Min Sea Level PressureIn, Max VisibilityMiles, Mean VisibilityMiles, Min VisibilityMiles, Max Wind SpeedMPH, Mean Wind SpeedMPH, Max Gust SpeedMPH,PrecipitationIn, CloudCover, Events, WindDirDegrees
2012-10-1,,,,,,,,,,,,,,,,,,,,,,
2012-10-2,73,56,39,43,35,28,65,42,25,29.98,29.91,29.86,10,10,5,13,3,,0.00,0,,183
2012-10-3,77,58,39,37,32,27,76,41,17,29.92,29.87,29.81,10,10,7,21,9,30,0.00,0,,165
2012-10-4,62,52,42,37,31,25,71,51,34,30.23,30.08,29.81,10,10,10,28,20,36,0.00,5,,291
2012-10-5,50,42,33,27,20,14,70,46,25,30.22,30.20,30.16,10,10,10,24,13,31,0.00,1,,301
2012-10-6,42,37,32,27,22,19,75,56,39,30.29,30.25,30.19,10,10,10,23,14,28,0.00,6,,314
2012-10-7,55,37,19,25,19,12,86,48,25,30.25,30.09,29.90,10,10,10,18,7,24,0.00,0,,224
2012-10-8,69,53,37,46,30,21,82,45,20,29.89,29.77,29.65,10,10,10,26,13,34,0.01,4,,217
2012-10-9,51,42,33,45,33,21,93,64,38,30.04,29.88,29.76,10,10,10,26,10,37,0.00,6,,282
2012-10-10,57,44,30,28,23,19,75,47,23,30.15,30.05,29.90,10,10,10,20,10,24,0.00,2,,245
2012-10-11,51,42,30,32,24,16,61,43,31,30.39,30.11,29.87,10,10,9,23,15,26,0.00,3,,323
2012-10-12,53,37,21,36,17,12,80,45,19,30.40,30.28,30.00,10,10,10,22,8,28,0.00,2,,147
2012-10-13,69,58,46,55,48,34,94,75,58,29.99,29.76,29.65,10,9,0,22,14,26,0.00,7,,183
2012-10-14,60,51,42,50,39,30,88,67,42,29.92,29.79,29.69,10,9,1,25,15,31,0.00,5,,330
2012-10-15,66,50,33,37,34,28,87,54,30,29.97,29.89,29.74,10,10,9,16,7,20,0.00,0,,207
2012-10-16,71,60,48,45,42,37,71,57,38,29.73,29.51,29.38,10,10,7,17,9,21,0.00,1,,170
2012-10-17,60,52,44,48,40,34,77,60,39,29.39,29.31,29.21,10,10,8,28,11,39,0.00,5,,264
2012-10-18,48,44,39,43,39,36,93,83,71,29.39,29.29,29.20,10,6,2,22,17,32,0.07,8,,302
2012-10-19,44,43,42,41,40,39,93,85,81,29.76,29.61,29.39,10,8,2,23,15,31,0.01,8,,321
2012-10-20,53,47,41,43,40,37,93,81,67,29.83,29.78,29.75,10,9,1,16,6,21,0.00,5,,179
2012-10-21,73,58,42,52,44,37,87,71,43,29.90,29.79,29.74,10,10,10,22,12,25,0.00,0,,179
2012-10-22,64,55,46,55,48,41,87,76,59,29.89,29.85,29.79,10,10,7,14,9,16,0.00,7,,28
2012-10-23,64,60,55,61,55,52,94,82,68,29.80,29.74,29.69,10,7,1,18,10,20,0.00,8,,174
2012-10-24,57,50,44,54,48,41,93,87,82,29.85,29.79,29.74,10,5,1,23,9,30,0.04,8,,348
2012-10-25,44,38,33,41,31,25,93,77,60,30.22,29.92,29.67,10,8,2,30,22,36,0.58,8,Thunderstorm,326
2012-10-26,37,34,32,25,22,19,65,56,48,30.40,30.38,30.34,10,10,10,17,11,22,0.00,8,,292
2012-10-27,41,34,26,25,21,16,80,59,39,30.37,30.32,30.28,10,10,4,8,5,,0.00,1,,212
2012-10-28,46,37,28,28,25,21,86,65,46,30.32,30.28,30.23,10,10,10,16,8,21,0.00,4,,159
2012-10-29,51,40,30,28,25,21,80,59,38,30.27,30.22,30.18,10,10,10,20,11,26,0.00,3,,141
2012-10-30,48,36,24,27,25,19,86,65,43,30.18,30.12,30.05,10,10,10,10,4,,0.00,2,,29
2012-10-31,53,40,26,28,22,18,75,53,26,30.06,30.01,29.93,10,10,8,10,3,,0.00,3,,330